Location: *
(41.0833°N, 73.4167°W)
Time: 19:58:50
(UTC+00:00)

ALOS - Pass Details

Date: 22 October 2019
Orbit: 683 x 686 km, 97.8° (Epoch: 13 November)

Event Time Altitude Azimuth Distance (km) Brightness Sun altitude
Rises 10:01:36 0° 17° (NNE) 3,056 5.8 -14.1°
Reaches altitude 10° 10:03:55 10° 23° (NNE) 2,135 5.1 -13.6°
Maximum altitude 10:08:28 52° 99° (E) 854 3.2 -12.8°
Drops below altitude 10° 10:13:00 10° 176° (S) 2,120 4.9 -11.9°
Sets 10:15:16 0° 181° (S) 3,030 5.6 -11.5°
